Time,TemperatureF,DewpointF,PressureIn,WindDirection,WindDirectionDegrees,WindSpeedMPH,WindSpeedGustMPH,Humidity,HourlyPrecipIn,Conditions,Clouds,dailyrainin,SoftwareType,DateUTC
2013-05-18 00:01:00,55.8,52.0,30.26,ENE,69,4.0,10.0,87,0.00,,,0.00,meteohub,2013-05-18 04:01:00,
2013-05-18 00:02:00,55.9,51.8,30.26,ENE,69,3.0,10.0,86,0.00,,,0.00,meteohub,2013-05-18 04:02:00,
2013-05-18 00:07:00,56.1,51.6,30.26,ENE,69,3.0,10.0,85,0.00,,,0.00,meteohub,2013-05-18 04:07:00,
2013-05-18 00:12:00,56.5,51.6,30.26,ENE,71,6.0,10.0,84,0.00,,,0.00,meteohub,2013-05-18 04:12:00,
2013-05-18 00:17:00,56.7,51.6,30.26,ENE,72,4.0,7.0,83,0.00,,,0.00,meteohub,2013-05-18 04:17:00,
2013-05-18 00:22:00,56.8,51.8,30.26,ENE,75,5.0,7.0,83,0.00,,,0.00,meteohub,2013-05-18 04:22:00,
2013-05-18 00:27:00,56.8,51.8,30.26,ENE,74,5.0,7.0,83,0.00,,,0.00,meteohub,2013-05-18 04:27:00,
2013-05-18 00:32:00,56.8,51.8,30.26,ENE,75,4.0,7.0,83,0.00,,,0.00,meteohub,2013-05-18 04:32:00,
2013-05-18 00:37:00,56.7,51.8,30.26,East,86,5.0,7.0,84,0.00,,,0.00,meteohub,2013-05-18 04:37:00,
2013-05-18 00:42:00,56.5,51.6,30.26,East,93,7.0,7.0,84,0.00,,,0.00,meteohub,2013-05-18 04:42:00,
2013-05-18 00:47:00,56.5,52.0,30.26,ESE,110,8.0,8.0,85,0.00,,,0.00,meteohub,2013-05-18 04:47:00,
2013-05-18 00:52:00,56.7,51.8,30.26,SE,133,8.0,8.0,84,0.00,,,0.00,meteohub,2013-05-18 04:52:00,
2013-05-18 00:58:00,56.7,51.8,30.26,SE,144,8.0,13.0,84,0.00,,,0.00,meteohub,2013-05-18 04:58:00,
2013-05-18 01:03:00,56.7,51.8,30.26,SSE,149,6.0,13.0,84,0.00,,,0.00,meteohub,2013-05-18 05:03:00,
2013-05-18 01:08:00,56.7,51.8,30.26,SSE,159,7.0,13.0,84,0.00,,,0.00,meteohub,2013-05-18 05:08:00,
2013-05-18 01:13:00,56.7,51.6,30.27,SSE,157,8.0,13.0,83,0.00,,,0.00,meteohub,2013-05-18 05:13:00,
2013-05-18 01:18:00,56.7,51.6,30.27,SSE,163,6.0,13.0,83,0.00,,,0.00,meteohub,2013-05-18 05:18:00,
2013-05-18 01:23:00,56.7,51.3,30.27,SSE,165,8.0,11.0,82,0.00,,,0.00,meteohub,2013-05-18 05:23:00,
2013-05-18 01:28:00,56.7,51.3,30.27,SSE,156,7.0,11.0,82,0.00,,,0.00,meteohub,2013-05-18 05:28:00,
2013-05-18 01:33:00,56.7,50.9,30.27,SSE,152,7.0,11.0,81,0.00,,,0.00,meteohub,2013-05-18 05:33:00,
2013-05-18 01:38:00,56.7,51.3,30.27,SSE,151,7.0,11.0,82,0.00,,,0.00,meteohub,2013-05-18 05:38:00,
2013-05-18 01:43:00,56.7,51.3,30.27,SE,144,7.0,12.0,82,0.00,,,0.00,meteohub,2013-05-18 05:43:00,
2013-05-18 01:48:00,56.7,51.3,30.27,SSE,147,8.0,12.0,82,0.00,,,0.00,meteohub,2013-05-18 05:48:00,
2013-05-18 01:53:00,56.7,51.3,30.27,SSE,154,6.0,11.0,82,0.00,,,0.00,meteohub,2013-05-18 05:53:00,
2013-05-18 01:58:00,56.5,51.1,30.27,SSE,147,8.0,11.0,82,0.00,,,0.00,meteohub,2013-05-18 05:58:00,
2013-05-18 02:03:00,56.5,50.7,30.27,SSE,147,9.0,11.0,81,0.00,,,0.00,meteohub,2013-05-18 06:03:00,
2013-05-18 02:08:00,56.7,50.9,30.27,SSE,158,8.0,11.0,81,0.00,,,0.00,meteohub,2013-05-18 06:08:00,
2013-05-18 02:13:00,56.7,50.9,30.27,SSE,147,5.0,11.0,81,0.00,,,0.00,meteohub,2013-05-18 06:13:00,
2013-05-18 02:18:00,56.7,50.5,30.27,SE,145,9.0,11.0,80,0.00,,,0.00,meteohub,2013-05-18 06:18:00,
2013-05-18 02:23:00,56.8,50.7,30.27,SE,146,9.0,11.0,80,0.00,,,0.00,meteohub,2013-05-18 06:23:00,
2013-05-18 02:28:00,56.8,50.7,30.27,SE,143,4.0,11.0,80,0.00,,,0.00,meteohub,2013-05-18 06:28:00,
2013-05-18 02:33:00,56.8,50.7,30.27,SSE,148,7.0,12.0,80,0.00,,,0.00,meteohub,2013-05-18 06:33:00,
2013-05-18 02:38:00,56.8,51.1,30.27,SSE,149,4.0,12.0,81,0.00,,,0.00,meteohub,2013-05-18 06:38:00,
2013-05-18 02:43:00,56.7,50.9,30.27,SSE,150,2.0,10.0,81,0.00,,,0.00,meteohub,2013-05-18 06:43:00,
2013-05-18 02:48:00,56.5,51.1,30.27,SSE,150,1.0,10.0,82,0.00,,,0.00,meteohub,2013-05-18 06:48:00,
2013-05-18 02:53:00,56.5,51.4,30.27,SSE,150,1.0,10.0,83,0.00,,,0.00,meteohub,2013-05-18 06:53:00,
2013-05-18 02:58:00,56.3,51.3,30.27,SSE,150,4.0,7.0,83,0.00,,,0.00,meteohub,2013-05-18 06:58:00,
2013-05-18 03:04:00,56.3,51.3,30.27,SSE,158,7.0,7.0,83,0.00,,,0.00,meteohub,2013-05-18 07:04:00,
2013-05-18 03:09:00,56.7,51.6,30.27,South,172,8.0,8.0,83,0.00,,,0.00,meteohub,2013-05-18 07:09:00,
2013-05-18 03:14:00,56.7,51.3,30.27,South,173,6.0,9.0,82,0.00,,,0.00,meteohub,2013-05-18 07:14:00,
2013-05-18 03:19:00,56.7,51.6,30.27,South,173,4.0,9.0,83,0.00,,,0.00,meteohub,2013-05-18 07:19:00,
2013-05-18 03:24:00,56.5,51.4,30.27,South,171,4.0,9.0,83,0.00,,,0.00,meteohub,2013-05-18 07:24:00,
2013-05-18 03:29:00,56.5,51.4,30.27,South,171,6.0,9.0,83,0.00,,,0.00,meteohub,2013-05-18 07:29:00,
2013-05-18 03:34:00,56.3,51.3,30.27,South,171,5.0,8.0,83,0.00,,,0.00,meteohub,2013-05-18 07:34:00,
2013-05-18 03:39:00,56.1,51.4,30.28,South,171,4.0,8.0,84,0.00,,,0.00,meteohub,2013-05-18 07:39:00,
2013-05-18 03:44:00,56.1,51.4,30.28,South,173,6.0,7.0,84,0.00,,,0.00,meteohub,2013-05-18 07:44:00,
2013-05-18 03:49:00,56.1,51.6,30.28,South,175,5.0,7.0,85,0.00,,,0.00,meteohub,2013-05-18 07:49:00,
2013-05-18 03:54:00,56.3,51.8,30.28,South,175,5.0,7.0,85,0.00,,,0.00,meteohub,2013-05-18 07:54:00,
2013-05-18 03:59:00,56.3,51.8,30.28,South,177,8.0,9.0,85,0.00,,,0.00,meteohub,2013-05-18 07:59:00,
2013-05-18 04:04:00,56.3,51.8,30.28,South,179,8.0,9.0,85,0.00,,,0.00,meteohub,2013-05-18 08:04:00,
2013-05-18 04:09:00,56.1,51.6,30.29,South,181,5.0,9.0,85,0.00,,,0.00,meteohub,2013-05-18 08:09:00,
2013-05-18 04:14:00,56.1,51.6,30.29,South,180,5.0,10.0,85,0.00,,,0.00,meteohub,2013-05-18 08:14:00,
2013-05-18 04:19:00,55.9,51.8,30.29,South,178,4.0,10.0,86,0.00,,,0.00,meteohub,2013-05-18 08:19:00,
2013-05-18 04:24:00,55.9,51.8,30.29,South,180,5.0,10.0,86,0.00,,,0.00,meteohub,2013-05-18 08:24:00,
2013-05-18 04:29:00,55.8,51.6,30.29,South,178,4.0,10.0,86,0.00,,,0.00,meteohub,2013-05-18 08:29:00,
2013-05-18 04:34:00,55.9,51.8,30.29,South,177,4.0,9.0,86,0.00,,,0.00,meteohub,2013-05-18 08:34:00,
2013-05-18 04:39:00,55.8,52.0,30.29,South,176,5.0,9.0,87,0.00,,,0.00,meteohub,2013-05-18 08:39:00,
2013-05-18 04:44:00,55.8,52.0,30.29,South,175,7.0,8.0,87,0.00,,,0.00,meteohub,2013-05-18 08:44:00,
2013-05-18 04:49:00,55.8,52.0,30.29,South,176,5.0,8.0,87,0.00,,,0.00,meteohub,2013-05-18 08:49:00,
2013-05-18 04:54:00,55.8,52.0,30.29,South,175,5.0,8.0,87,0.00,,,0.00,meteohub,2013-05-18 08:54:00,
2013-05-18 04:59:00,55.9,52.2,30.29,South,178,7.0,8.0,87,0.00,,,0.00,meteohub,2013-05-18 08:59:00,
2013-05-18 05:04:00,55.9,52.2,30.29,South,177,2.0,9.0,87,0.00,,,0.00,meteohub,2013-05-18 09:04:00,
2013-05-18 05:09:00,55.9,51.8,30.30,South,176,7.0,9.0,86,0.00,,,0.00,meteohub,2013-05-18 09:09:00,
2013-05-18 05:14:00,55.9,52.2,30.30,South,175,4.0,9.0,87,0.00,,,0.00,meteohub,2013-05-18 09:14:00,
2013-05-18 05:19:00,55.8,52.0,30.30,South,175,5.0,9.0,87,0.00,,,0.00,meteohub,2013-05-18 09:19:00,
2013-05-18 05:24:00,55.9,52.2,30.30,South,175,5.0,9.0,87,0.00,,,0.00,meteohub,2013-05-18 09:24:00,
2013-05-18 05:30:00,55.9,52.2,30.30,South,175,5.0,7.0,87,0.00,,,0.00,meteohub,2013-05-18 09:30:00,
2013-05-18 05:35:00,55.8,52.0,30.30,South,173,6.0,7.0,87,0.00,,,0.00,meteohub,2013-05-18 09:35:00,
2013-05-18 05:40:00,55.8,52.0,30.30,South,172,5.0,7.0,87,0.00,,,0.00,meteohub,2013-05-18 09:40:00,
2013-05-18 05:45:00,55.8,52.0,30.30,South,172,1.0,7.0,87,0.00,,,0.00,meteohub,2013-05-18 09:45:00,
2013-05-18 05:50:00,55.9,52.2,30.30,South,171,4.0,7.0,87,0.00,,,0.00,meteohub,2013-05-18 09:50:00,
2013-05-18 05:55:00,55.9,52.2,30.31,South,171,4.0,8.0,87,0.00,,,0.00,meteohub,2013-05-18 09:55:00,
2013-05-18 06:00:00,55.9,52.2,30.31,South,170,5.0,8.0,87,0.00,,,0.00,meteohub,2013-05-18 10:00:00,
2013-05-18 06:05:00,56.1,52.0,30.31,South,170,2.0,8.0,86,0.00,,,0.00,meteohub,2013-05-18 10:05:00,
2013-05-18 06:10:00,56.1,52.0,30.32,South,169,6.0,8.0,86,0.00,,,0.00,meteohub,2013-05-18 10:10:00,
2013-05-18 06:15:00,56.5,52.0,30.32,South,169,5.0,8.0,85,0.00,,,0.00,meteohub,2013-05-18 10:15:00,
2013-05-18 06:20:00,56.7,51.8,30.32,South,169,4.0,8.0,84,0.00,,,0.00,meteohub,2013-05-18 10:20:00,
2013-05-18 06:25:00,56.8,52.0,30.32,SSE,167,6.0,7.0,84,0.00,,,0.00,meteohub,2013-05-18 10:25:00,
2013-05-18 06:30:00,56.8,52.0,30.33,SSE,166,4.0,7.0,84,0.00,,,0.00,meteohub,2013-05-18 10:30:00,
2013-05-18 06:35:00,56.8,51.8,30.33,SSE,166,6.0,7.0,83,0.00,,,0.00,meteohub,2013-05-18 10:35:00,
2013-05-18 06:40:00,56.8,51.8,30.33,SSE,166,2.0,7.0,83,0.00,,,0.00,meteohub,2013-05-18 10:40:00,
2013-05-18 06:45:00,57.0,51.6,30.32,SSE,166,6.0,7.0,82,0.00,,,0.00,meteohub,2013-05-18 10:45:00,
2013-05-18 06:50:00,57.0,51.3,30.33,SSE,163,7.0,7.0,81,0.00,,,0.00,meteohub,2013-05-18 10:50:00,
2013-05-18 06:55:00,57.0,51.3,30.33,SSE,161,6.0,7.0,81,0.00,,,0.00,meteohub,2013-05-18 10:55:00,
2013-05-18 07:00:00,57.0,51.3,30.33,SSE,161,4.0,7.0,81,0.00,,,0.00,meteohub,2013-05-18 11:00:00,
2013-05-18 07:05:00,57.4,51.6,30.33,SSE,161,2.0,7.0,81,0.00,,,0.00,meteohub,2013-05-18 11:05:00,
2013-05-18 07:10:00,57.4,51.3,30.33,SSE,161,4.0,7.0,80,0.00,,,0.00,meteohub,2013-05-18 11:10:00,
2013-05-18 07:15:00,57.6,51.4,30.34,SSE,163,5.0,7.0,80,0.00,,,0.00,meteohub,2013-05-18 11:15:00,
2013-05-18 07:20:00,57.9,51.4,30.34,SSE,163,1.0,7.0,79,0.00,,,0.00,meteohub,2013-05-18 11:20:00,
2013-05-18 07:25:00,58.3,51.4,30.34,SSE,164,6.0,8.0,78,0.00,,,0.00,meteohub,2013-05-18 11:25:00,
2013-05-18 07:30:00,58.6,51.1,30.34,SSE,165,5.0,8.0,76,0.00,,,0.00,meteohub,2013-05-18 11:30:00,
2013-05-18 07:35:00,58.6,51.1,30.34,SSE,165,5.0,8.0,76,0.00,,,0.00,meteohub,2013-05-18 11:35:00,
2013-05-18 07:40:00,58.6,51.1,30.35,SSE,165,4.0,8.0,76,0.00,,,0.00,meteohub,2013-05-18 11:40:00,
2013-05-18 07:45:00,58.8,50.9,30.35,SSE,166,7.0,8.0,75,0.00,,,0.00,meteohub,2013-05-18 11:45:00,
2013-05-18 07:50:00,59.2,51.3,30.34,SSE,166,4.0,8.0,75,0.00,,,0.00,meteohub,2013-05-18 11:50:00,
2013-05-18 07:55:00,59.7,51.1,30.35,SSE,166,4.0,7.0,73,0.00,,,0.00,meteohub,2013-05-18 11:55:00,
2013-05-18 08:00:00,60.3,50.9,30.35,SSE,168,2.0,7.0,71,0.00,,,0.00,meteohub,2013-05-18 12:00:00,
2013-05-18 08:05:00,60.3,50.0,30.35,SSE,168,1.0,7.0,69,0.00,,,0.00,meteohub,2013-05-18 12:05:00,
2013-05-18 08:10:00,60.3,50.0,30.35,SSE,168,5.0,7.0,69,0.00,,,0.00,meteohub,2013-05-18 12:10:00,
2013-05-18 08:15:00,60.3,50.4,30.35,South,169,2.0,7.0,70,0.00,,,0.00,meteohub,2013-05-18 12:15:00,
2013-05-18 08:20:00,60.4,50.2,30.35,South,184,4.0,7.0,69,0.00,,,0.00,meteohub,2013-05-18 12:20:00,
2013-05-18 08:25:00,60.8,50.2,30.35,SSW,196,6.0,7.0,68,0.00,,,0.00,meteohub,2013-05-18 12:25:00,
2013-05-18 08:30:00,60.8,50.2,30.35,SSW,198,7.0,7.0,68,0.00,,,0.00,meteohub,2013-05-18 12:30:00,
2013-05-18 08:35:00,60.8,49.8,30.35,SSW,198,7.0,7.0,67,0.00,,,0.00,meteohub,2013-05-18 12:35:00,
2013-05-18 08:40:00,60.6,50.0,30.35,SSW,198,5.0,8.0,68,0.00,,,0.00,meteohub,2013-05-18 12:40:00,
2013-05-18 08:45:00,60.6,50.4,30.36,SSW,201,5.0,8.0,69,0.00,,,0.00,meteohub,2013-05-18 12:45:00,
2013-05-18 08:50:00,60.8,50.5,30.36,SSW,203,7.0,8.0,69,0.00,,,0.00,meteohub,2013-05-18 12:50:00,
2013-05-18 08:55:00,60.8,50.5,30.36,SSW,203,4.0,8.0,69,0.00,,,0.00,meteohub,2013-05-18 12:55:00,
2013-05-18 09:00:00,61.2,51.3,30.36,SSW,202,3.0,9.0,70,0.00,,,0.00,meteohub,2013-05-18 13:00:00,
2013-05-18 09:05:00,61.5,50.9,30.36,SSW,198,5.0,9.0,68,0.00,,,0.00,meteohub,2013-05-18 13:05:00,
2013-05-18 09:10:00,61.5,51.6,30.36,SSW,196,6.0,9.0,70,0.00,,,0.00,meteohub,2013-05-18 13:10:00,
2013-05-18 09:16:00,61.9,51.6,30.36,South,185,5.0,9.0,69,0.00,,,0.00,meteohub,2013-05-18 13:16:00,
2013-05-18 09:21:00,61.7,51.4,30.36,SSW,196,7.0,9.0,69,0.00,,,0.00,meteohub,2013-05-18 13:21:00,
2013-05-18 09:26:00,61.2,50.9,30.36,SSW,194,7.0,9.0,69,0.00,,,0.00,meteohub,2013-05-18 13:26:00,
2013-05-18 09:31:00,61.3,51.4,30.36,South,190,5.0,9.0,70,0.00,,,0.00,meteohub,2013-05-18 13:31:00,
2013-05-18 09:36:00,62.1,52.2,30.36,South,190,4.0,9.0,70,0.00,,,0.00,meteohub,2013-05-18 13:36:00,
2013-05-18 09:41:00,62.4,51.8,30.36,South,188,5.0,9.0,68,0.00,,,0.00,meteohub,2013-05-18 13:41:00,
2013-05-18 09:46:00,62.4,52.2,30.36,South,186,4.0,9.0,69,0.00,,,0.00,meteohub,2013-05-18 13:46:00,
2013-05-18 09:51:00,62.8,52.9,30.36,South,186,4.0,9.0,70,0.00,,,0.00,meteohub,2013-05-18 13:51:00,
2013-05-18 09:56:00,62.2,52.0,30.36,South,182,5.0,9.0,69,0.00,,,0.00,meteohub,2013-05-18 13:56:00,
2013-05-18 10:01:00,62.2,52.3,30.36,South,180,4.0,9.0,70,0.00,,,0.00,meteohub,2013-05-18 14:01:00,
2013-05-18 10:06:00,62.2,52.0,30.37,South,177,4.0,9.0,69,0.00,,,0.00,meteohub,2013-05-18 14:06:00,
2013-05-18 10:11:00,62.2,51.6,30.36,South,175,6.0,9.0,68,0.00,,,0.00,meteohub,2013-05-18 14:11:00,
2013-05-18 10:16:00,62.2,52.0,30.36,South,175,5.0,9.0,69,0.00,,,0.00,meteohub,2013-05-18 14:16:00,
2013-05-18 10:21:00,62.2,52.3,30.36,South,175,6.0,8.0,70,0.00,,,0.00,meteohub,2013-05-18 14:21:00,
2013-05-18 10:26:00,62.2,52.3,30.36,South,172,5.0,8.0,70,0.00,,,0.00,meteohub,2013-05-18 14:26:00,
2013-05-18 10:31:00,62.4,52.5,30.36,South,174,7.0,8.0,70,0.00,,,0.00,meteohub,2013-05-18 14:31:00,
2013-05-18 10:36:00,62.6,52.7,30.36,South,172,5.0,8.0,70,0.00,,,0.00,meteohub,2013-05-18 14:36:00,
2013-05-18 10:41:00,62.2,52.7,30.37,South,173,5.0,9.0,71,0.00,,,0.00,meteohub,2013-05-18 14:41:00,
2013-05-18 10:46:00,62.6,53.4,30.37,South,174,5.0,9.0,72,0.00,,,0.00,meteohub,2013-05-18 14:46:00,
2013-05-18 10:51:00,62.8,53.6,30.37,South,178,5.0,9.0,72,0.00,,,0.00,meteohub,2013-05-18 14:51:00,
2013-05-18 10:56:00,63.1,54.3,30.37,South,180,4.0,9.0,73,0.00,,,0.00,meteohub,2013-05-18 14:56:00,
2013-05-18 11:01:00,63.1,54.0,30.37,South,179,8.0,9.0,72,0.00,,,0.00,meteohub,2013-05-18 15:01:00,
2013-05-18 11:06:00,63.3,54.5,30.36,South,180,4.0,9.0,73,0.00,,,0.00,meteohub,2013-05-18 15:06:00,
2013-05-18 11:11:00,63.3,54.5,30.36,South,179,6.0,10.0,73,0.00,,,0.00,meteohub,2013-05-18 15:11:00,
2013-05-18 11:16:00,63.3,54.5,30.36,South,173,7.0,10.0,73,0.00,,,0.00,meteohub,2013-05-18 15:16:00,
2013-05-18 11:21:00,63.3,54.1,30.36,South,176,5.0,10.0,72,0.00,,,0.00,meteohub,2013-05-18 15:21:00,
2013-05-18 11:26:00,63.3,54.5,30.36,South,173,6.0,10.0,73,0.00,,,0.00,meteohub,2013-05-18 15:26:00,
2013-05-18 11:32:00,63.3,54.5,30.36,South,174,6.0,10.0,73,-99.99,,,0.00,meteohub,2013-05-18 15:32:00,
2013-05-18 11:37:00,63.3,54.5,30.36,South,175,7.0,9.0,73,0.00,,,0.00,meteohub,2013-05-18 15:37:00,
2013-05-18 11:42:00,63.1,54.7,30.36,South,173,5.0,9.0,74,0.00,,,0.00,meteohub,2013-05-18 15:42:00,
2013-05-18 11:47:00,63.1,55.0,30.36,South,174,7.0,9.0,75,0.00,,,0.00,meteohub,2013-05-18 15:47:00,
2013-05-18 11:52:00,63.5,55.8,30.36,South,170,4.0,9.0,76,0.00,,,0.00,meteohub,2013-05-18 15:52:00,
2013-05-18 11:57:00,64.0,55.6,30.36,SSE,164,5.0,9.0,74,0.00,,,0.00,meteohub,2013-05-18 15:57:00,
2013-05-18 12:02:00,63.9,55.4,30.36,SSE,165,6.0,8.0,74,0.00,,,0.00,meteohub,2013-05-18 16:02:00,
2013-05-18 12:07:00,63.7,54.9,30.36,SSE,161,5.0,8.0,73,0.00,,,0.00,meteohub,2013-05-18 16:07:00,
2013-05-18 12:12:00,63.1,54.7,30.35,SE,146,9.0,9.0,74,0.00,,,0.00,meteohub,2013-05-18 16:12:00,
2013-05-18 12:17:00,63.0,54.9,30.35,SSE,148,9.0,9.0,75,0.00,,,0.00,meteohub,2013-05-18 16:17:00,
2013-05-18 12:22:00,62.4,54.7,30.35,SE,142,6.0,8.0,76,0.00,,,0.00,meteohub,2013-05-18 16:22:00,
2013-05-18 12:27:00,62.4,55.0,30.35,SE,134,7.0,8.0,77,0.00,,,0.00,meteohub,2013-05-18 16:27:00,
2013-05-18 12:32:00,62.1,54.7,30.35,SE,125,7.0,12.0,77,0.00,,,0.00,meteohub,2013-05-18 16:32:00,
2013-05-18 12:37:00,61.9,54.9,30.35,SE,132,11.0,12.0,78,0.00,,,0.00,meteohub,2013-05-18 16:37:00,
2013-05-18 12:42:00,61.9,55.2,30.35,SE,138,6.0,12.0,79,0.00,,,0.00,meteohub,2013-05-18 16:42:00,
2013-05-18 12:47:00,61.7,55.0,30.35,SE,136,6.0,12.0,79,0.00,,,0.00,meteohub,2013-05-18 16:47:00,
2013-05-18 12:52:00,61.9,54.9,30.35,SE,135,8.0,12.0,78,0.00,,,0.00,meteohub,2013-05-18 16:52:00,
2013-05-18 12:57:00,62.2,55.2,30.35,SSE,165,6.0,12.0,78,0.00,,,0.00,meteohub,2013-05-18 16:57:00,
2013-05-18 13:02:00,62.6,54.9,30.35,SSE,167,8.0,12.0,76,0.00,,,0.00,meteohub,2013-05-18 17:02:00,
2013-05-18 13:07:00,63.0,55.2,30.35,SSE,155,6.0,12.0,76,0.00,,,0.00,meteohub,2013-05-18 17:07:00,
2013-05-18 13:12:00,63.0,55.2,30.35,SSE,157,7.0,12.0,76,0.00,,,0.00,meteohub,2013-05-18 17:12:00,
2013-05-18 13:17:00,62.2,54.5,30.35,SSE,152,6.0,12.0,76,0.00,,,0.00,meteohub,2013-05-18 17:17:00,
2013-05-18 13:22:00,61.9,54.9,30.35,SSE,159,6.0,12.0,78,0.00,,,0.00,meteohub,2013-05-18 17:22:00,
2013-05-18 13:27:00,62.4,55.0,30.35,SE,142,8.0,12.0,77,0.00,,,0.00,meteohub,2013-05-18 17:27:00,
2013-05-18 13:32:00,61.9,54.7,30.35,SE,144,6.0,12.0,77,0.00,,,0.00,meteohub,2013-05-18 17:32:00,
2013-05-18 13:37:00,61.3,54.5,30.35,SSE,148,10.0,12.0,78,0.00,,,0.00,meteohub,2013-05-18 17:37:00,
2013-05-18 13:42:00,61.7,55.0,30.35,SSE,152,4.0,12.0,79,0.00,,,0.00,meteohub,2013-05-18 17:42:00,
2013-05-18 13:47:00,61.9,54.9,30.35,SE,144,12.0,12.0,78,0.00,,,0.00,meteohub,2013-05-18 17:47:00,
2013-05-18 13:52:00,61.7,54.9,30.35,SSE,150,11.0,12.0,78,0.00,,,0.00,meteohub,2013-05-18 17:52:00,
2013-05-18 13:57:00,61.3,54.1,30.35,SE,143,8.0,12.0,77,0.00,,,0.00,meteohub,2013-05-18 17:57:00,
2013-05-18 14:02:00,61.2,54.7,30.35,SSE,148,7.0,12.0,79,0.00,,,0.00,meteohub,2013-05-18 18:02:00,
2013-05-18 14:07:00,61.2,54.3,30.35,SE,134,7.0,12.0,78,0.00,,,0.00,meteohub,2013-05-18 18:07:00,
2013-05-18 14:12:00,61.0,54.7,30.35,SSE,147,9.0,12.0,80,0.00,,,0.00,meteohub,2013-05-18 18:12:00,
2013-05-18 14:17:00,61.0,54.5,30.35,SE,144,8.0,12.0,79,0.00,,,0.00,meteohub,2013-05-18 18:17:00,
2013-05-18 14:22:00,60.8,54.7,30.34,SSE,163,6.0,12.0,80,0.00,,,0.00,meteohub,2013-05-18 18:22:00,
2013-05-18 14:27:00,61.2,54.7,30.34,SSE,158,5.0,12.0,79,0.00,,,0.00,meteohub,2013-05-18 18:27:00,
2013-05-18 14:32:00,61.3,54.9,30.34,SSE,151,6.0,12.0,79,0.00,,,0.00,meteohub,2013-05-18 18:32:00,
2013-05-18 14:37:00,61.2,54.3,30.34,SSE,158,6.0,12.0,78,0.00,,,0.00,meteohub,2013-05-18 18:37:00,
2013-05-18 14:42:00,61.2,54.3,30.34,SSE,153,7.0,12.0,78,0.00,,,0.00,meteohub,2013-05-18 18:42:00,
2013-05-18 14:47:00,60.6,53.8,30.34,SE,146,8.0,12.0,78,0.00,,,0.00,meteohub,2013-05-18 18:47:00,
2013-05-18 14:52:00,60.3,54.1,30.34,SE,145,6.0,12.0,80,0.00,,,0.00,meteohub,2013-05-18 18:52:00,
2013-05-18 14:57:00,60.1,54.3,30.34,SSE,150,7.0,12.0,81,0.00,,,0.00,meteohub,2013-05-18 18:57:00,
2013-05-18 15:02:00,60.1,54.3,30.34,SE,144,8.0,12.0,81,0.00,,,0.00,meteohub,2013-05-18 19:02:00,
2013-05-18 15:07:00,59.9,54.3,30.34,SSE,150,8.0,12.0,82,0.00,,,0.00,meteohub,2013-05-18 19:07:00,
2013-05-18 15:12:00,59.9,54.1,30.34,SSE,152,10.0,12.0,81,0.00,,,0.00,meteohub,2013-05-18 19:12:00,
2013-05-18 15:17:00,60.1,54.3,30.34,SSE,147,5.0,12.0,81,0.00,,,0.00,meteohub,2013-05-18 19:17:00,
2013-05-18 15:22:00,59.9,54.1,30.34,SE,144,8.0,11.0,81,0.00,,,0.00,meteohub,2013-05-18 19:22:00,
2013-05-18 15:27:00,59.7,54.1,30.34,SE,144,9.0,11.0,82,0.00,,,0.00,meteohub,2013-05-18 19:27:00,
2013-05-18 15:33:00,59.5,54.0,30.34,SSE,151,5.0,11.0,82,0.00,,,0.00,meteohub,2013-05-18 19:33:00,
2013-05-18 15:38:00,59.4,54.1,30.34,SE,142,8.0,11.0,83,0.00,,,0.00,meteohub,2013-05-18 19:38:00,
2013-05-18 15:43:00,59.5,54.3,30.34,SSE,157,2.0,12.0,83,0.00,,,0.00,meteohub,2013-05-18 19:43:00,
2013-05-18 15:48:00,59.5,54.3,30.34,SSE,158,6.0,12.0,83,0.00,,,0.00,meteohub,2013-05-18 19:48:00,
2013-05-18 15:53:00,59.7,54.5,30.34,South,169,5.0,12.0,83,0.00,,,0.00,meteohub,2013-05-18 19:53:00,
2013-05-18 15:58:00,59.5,54.3,30.34,SSE,165,7.0,12.0,83,0.00,,,0.00,meteohub,2013-05-18 19:58:00,
2013-05-18 16:03:00,59.5,54.3,30.34,SSE,159,8.0,12.0,83,0.00,,,0.00,meteohub,2013-05-18 20:03:00,
2013-05-18 16:08:00,59.4,54.1,30.34,SSE,162,9.0,12.0,83,0.00,,,0.00,meteohub,2013-05-18 20:08:00,
2013-05-18 16:13:00,59.4,54.1,30.34,South,172,11.0,11.0,83,0.00,,,0.00,meteohub,2013-05-18 20:13:00,
2013-05-18 16:18:00,59.4,54.1,30.35,SSE,162,9.0,11.0,83,0.00,,,0.00,meteohub,2013-05-18 20:18:00,
2013-05-18 16:23:00,59.4,54.5,30.34,South,178,8.0,11.0,84,0.00,,,0.00,meteohub,2013-05-18 20:23:00,
2013-05-18 16:28:00,59.4,54.5,30.35,South,175,8.0,11.0,84,0.00,,,0.00,meteohub,2013-05-18 20:28:00,
2013-05-18 16:33:00,59.2,54.3,30.35,South,172,9.0,11.0,84,0.00,,,0.00,meteohub,2013-05-18 20:33:00,
2013-05-18 16:38:00,59.2,54.7,30.35,South,181,7.0,11.0,85,0.00,,,0.00,meteohub,2013-05-18 20:38:00,
2013-05-18 16:43:00,59.2,54.7,30.35,SSE,167,11.0,11.0,85,0.00,,,0.00,meteohub,2013-05-18 20:43:00,
2013-05-18 16:48:00,59.2,54.7,30.35,South,180,5.0,11.0,85,0.00,,,0.00,meteohub,2013-05-18 20:48:00,
2013-05-18 16:53:00,59.2,54.7,30.35,South,181,7.0,11.0,85,0.00,,,0.00,meteohub,2013-05-18 20:53:00,
2013-05-18 16:58:00,59.2,54.7,30.35,South,175,11.0,12.0,85,0.00,,,0.00,meteohub,2013-05-18 20:58:00,
2013-05-18 17:03:00,59.2,55.0,30.35,South,186,9.0,12.0,86,0.00,,,0.00,meteohub,2013-05-18 21:03:00,
2013-05-18 17:08:00,59.2,54.7,30.35,SSW,192,9.0,12.0,85,0.00,,,0.00,meteohub,2013-05-18 21:08:00,
2013-05-18 17:13:00,58.8,54.7,30.35,South,170,10.0,12.0,86,0.00,,,0.00,meteohub,2013-05-18 21:13:00,
2013-05-18 17:18:00,58.8,55.0,30.35,South,188,6.0,12.0,87,0.00,,,0.00,meteohub,2013-05-18 21:18:00,
2013-05-18 17:23:00,58.6,54.9,30.35,SSW,211,8.0,13.0,87,0.00,,,0.00,meteohub,2013-05-18 21:23:00,
2013-05-18 17:28:00,58.6,54.9,30.35,SSW,194,5.0,13.0,87,0.00,,,0.00,meteohub,2013-05-18 21:28:00,
2013-05-18 17:33:00,58.6,54.9,30.35,SSW,202,8.0,13.0,87,0.00,,,0.00,meteohub,2013-05-18 21:33:00,
2013-05-18 17:38:00,58.5,54.7,30.35,SSW,202,7.0,13.0,87,0.00,,,0.00,meteohub,2013-05-18 21:38:00,
2013-05-18 17:43:00,58.5,54.9,30.35,South,183,7.0,13.0,88,0.00,,,0.00,meteohub,2013-05-18 21:43:00,
2013-05-18 17:48:00,58.5,54.9,30.35,SSW,202,8.0,12.0,88,0.00,,,0.00,meteohub,2013-05-18 21:48:00,
2013-05-18 17:53:00,58.5,54.9,30.35,SSW,196,9.0,12.0,88,0.00,,,0.00,meteohub,2013-05-18 21:53:00,
2013-05-18 17:58:00,58.5,54.7,30.35,SSW,195,10.0,12.0,87,0.00,,,0.00,meteohub,2013-05-18 21:58:00,
2013-05-18 18:03:00,58.5,54.7,30.35,SSW,198,5.0,12.0,87,0.00,,,0.00,meteohub,2013-05-18 22:03:00,
2013-05-18 18:08:00,58.5,54.7,30.35,SSW,192,8.0,12.0,87,0.00,,,0.00,meteohub,2013-05-18 22:08:00,
2013-05-18 18:13:00,58.6,54.9,30.35,SSW,200,9.0,12.0,87,0.00,,,0.00,meteohub,2013-05-18 22:13:00,
2013-05-18 18:18:00,58.6,54.9,30.35,SSW,200,8.0,15.0,87,0.00,,,0.00,meteohub,2013-05-18 22:18:00,
2013-05-18 18:23:00,58.6,54.9,30.35,SSW,204,9.0,15.0,87,0.00,,,0.00,meteohub,2013-05-18 22:23:00,
2013-05-18 18:28:00,58.8,55.0,30.35,South,180,7.0,15.0,87,0.00,,,0.00,meteohub,2013-05-18 22:28:00,
2013-05-18 18:34:00,58.6,54.9,30.35,South,173,13.0,15.0,87,0.00,,,0.00,meteohub,2013-05-18 22:34:00,
2013-05-18 18:39:00,58.6,55.0,30.35,SSW,193,10.0,15.0,88,0.00,,,0.00,meteohub,2013-05-18 22:39:00,
2013-05-18 18:44:00,58.5,54.9,30.35,SSW,192,9.0,15.0,88,0.00,,,0.00,meteohub,2013-05-18 22:44:00,
2013-05-18 18:49:00,58.3,55.0,30.35,SSW,198,4.0,17.0,89,0.00,,,0.00,meteohub,2013-05-18 22:49:00,
2013-05-18 18:54:00,58.3,55.0,30.35,South,190,8.0,17.0,89,0.00,,,0.00,meteohub,2013-05-18 22:54:00,
2013-05-18 18:59:00,58.1,54.9,30.35,South,186,10.0,17.0,89,0.00,,,0.00,meteohub,2013-05-18 22:59:00,
2013-05-18 19:04:00,58.1,55.2,30.35,South,180,10.0,17.0,90,0.00,,,0.00,meteohub,2013-05-18 23:04:00,
2013-05-18 19:09:00,58.1,55.2,30.35,South,175,9.0,17.0,90,0.00,,,0.00,meteohub,2013-05-18 23:09:00,
2013-05-18 19:14:00,57.9,55.0,30.36,South,179,7.0,17.0,90,0.00,,,0.00,meteohub,2013-05-18 23:14:00,
2013-05-18 19:19:00,57.9,55.0,30.36,SSW,201,6.0,17.0,90,0.00,,,0.00,meteohub,2013-05-18 23:19:00,
2013-05-18 19:24:00,57.9,55.0,30.36,South,183,6.0,15.0,90,0.00,,,0.00,meteohub,2013-05-18 23:24:00,
2013-05-18 19:29:00,57.9,54.7,30.35,South,182,6.0,15.0,89,0.00,,,0.00,meteohub,2013-05-18 23:29:00,
2013-05-18 19:34:00,58.1,54.9,30.35,South,182,7.0,15.0,89,0.00,,,0.00,meteohub,2013-05-18 23:34:00,
2013-05-18 19:39:00,58.1,54.5,30.35,SSW,192,9.0,15.0,88,0.00,,,0.00,meteohub,2013-05-18 23:39:00,
2013-05-18 19:44:00,58.1,54.5,30.35,South,191,7.0,15.0,88,0.00,,,0.00,meteohub,2013-05-18 23:44:00,
2013-05-18 19:49:00,58.1,54.0,30.35,SSW,193,3.0,15.0,86,0.00,,,0.00,meteohub,2013-05-18 23:49:00,
2013-05-18 19:54:00,58.3,53.8,30.35,SSW,196,5.0,12.0,85,0.00,,,0.00,meteohub,2013-05-18 23:54:00,
2013-05-18 19:59:00,58.3,53.4,30.36,SSW,202,5.0,12.0,84,0.00,,,0.00,meteohub,2013-05-18 23:59:00,
2013-05-18 20:04:00,58.5,53.1,30.36,SSW,198,8.0,12.0,82,0.00,,,0.00,meteohub,2013-05-19 00:04:00,
2013-05-18 20:09:00,58.6,52.9,30.36,South,186,6.0,12.0,81,0.00,,,0.00,meteohub,2013-05-19 00:09:00,
2013-05-18 20:14:00,58.8,53.1,30.36,SSW,194,8.0,12.0,81,0.00,,,0.00,meteohub,2013-05-19 00:14:00,
2013-05-18 20:19:00,58.8,53.1,30.36,South,182,7.0,11.0,81,0.00,,,0.00,meteohub,2013-05-19 00:19:00,
2013-05-18 20:24:00,58.8,53.4,30.35,South,184,7.0,11.0,82,0.00,,,0.00,meteohub,2013-05-19 00:24:00,
2013-05-18 20:29:00,58.6,53.4,30.35,South,188,6.0,11.0,83,0.00,,,0.00,meteohub,2013-05-19 00:29:00,
2013-05-18 20:34:00,58.8,54.0,30.35,South,177,5.0,11.0,84,0.00,,,0.00,meteohub,2013-05-19 00:34:00,
2013-05-18 20:39:00,58.6,53.8,30.35,South,180,4.0,11.0,84,0.00,,,0.00,meteohub,2013-05-19 00:39:00,
2013-05-18 20:44:00,58.6,53.4,30.35,South,169,6.0,11.0,83,0.00,,,0.00,meteohub,2013-05-19 00:44:00,
2013-05-18 20:49:00,58.6,53.4,30.35,South,169,5.0,11.0,83,0.00,,,0.00,meteohub,2013-05-19 00:49:00,
2013-05-18 20:54:00,58.6,53.4,30.35,SSE,165,9.0,9.0,83,0.00,,,0.00,meteohub,2013-05-19 00:54:00,
2013-05-18 20:59:00,58.6,53.2,30.35,SSE,168,4.0,9.0,82,0.00,,,0.00,meteohub,2013-05-19 00:59:00,
2013-05-18 21:04:00,58.6,53.2,30.35,South,170,9.0,9.0,82,0.00,,,0.00,meteohub,2013-05-19 01:04:00,
2013-05-18 21:09:00,58.6,53.4,30.35,SSE,163,5.0,9.0,83,0.00,,,0.00,meteohub,2013-05-19 01:09:00,
2013-05-18 21:14:00,58.6,53.2,30.35,SSE,165,5.0,9.0,82,0.00,,,0.00,meteohub,2013-05-19 01:14:00,
2013-05-18 21:19:00,58.6,53.2,30.35,SSE,159,4.0,9.0,82,0.00,,,0.00,meteohub,2013-05-19 01:19:00,
2013-05-18 21:24:00,58.6,52.9,30.35,SSE,147,6.0,9.0,81,0.00,,,0.00,meteohub,2013-05-19 01:24:00,
2013-05-18 21:29:00,58.6,52.5,30.35,SSE,153,7.0,9.0,80,0.00,,,0.00,meteohub,2013-05-19 01:29:00,
2013-05-18 21:34:00,58.6,52.9,30.35,SE,143,7.0,9.0,81,0.00,,,0.00,meteohub,2013-05-19 01:34:00,
2013-05-18 21:39:00,58.6,52.9,30.35,SE,144,7.0,12.0,81,0.00,,,0.00,meteohub,2013-05-19 01:39:00,
2013-05-18 21:44:00,58.6,52.9,30.35,SE,141,4.0,12.0,81,0.00,,,0.00,meteohub,2013-05-19 01:44:00,
2013-05-18 21:49:00,58.6,52.9,30.35,SE,138,7.0,12.0,81,0.00,,,0.00,meteohub,2013-05-19 01:49:00,
2013-05-18 21:54:00,58.6,53.2,30.35,SE,138,6.0,10.0,82,0.00,,,0.00,meteohub,2013-05-19 01:54:00,
2013-05-18 21:59:00,58.5,53.1,30.35,SE,136,6.0,10.0,82,0.00,,,0.00,meteohub,2013-05-19 01:59:00,
2013-05-18 22:04:00,58.5,53.1,30.35,SE,140,6.0,10.0,82,0.00,,,0.00,meteohub,2013-05-19 02:04:00,
2013-05-18 22:09:00,58.5,53.1,30.35,SSE,148,6.0,10.0,82,0.00,,,0.00,meteohub,2013-05-19 02:09:00,
2013-05-18 22:14:00,58.5,53.2,30.35,SSE,150,6.0,10.0,83,0.00,,,0.00,meteohub,2013-05-19 02:14:00,
2013-05-18 22:19:00,58.5,53.6,30.35,SSE,164,8.0,10.0,84,0.00,,,0.00,meteohub,2013-05-19 02:19:00,
2013-05-18 22:24:00,58.3,53.8,30.35,South,170,6.0,10.0,85,0.00,,,0.00,meteohub,2013-05-19 02:24:00,
2013-05-18 22:29:00,58.3,54.1,30.35,South,170,6.0,14.0,86,0.00,,,0.00,meteohub,2013-05-19 02:29:00,
2013-05-18 22:35:00,58.3,54.1,30.35,SSE,162,5.0,14.0,86,0.00,,,0.00,meteohub,2013-05-19 02:35:00,
2013-05-18 22:40:00,58.1,54.0,30.35,SE,146,11.0,14.0,86,0.00,,,0.00,meteohub,2013-05-19 02:40:00,
2013-05-18 22:45:00,58.1,53.6,30.35,SSE,151,6.0,14.0,85,0.00,,,0.00,meteohub,2013-05-19 02:45:00,
2013-05-18 22:50:00,58.1,53.2,30.35,SSE,155,5.0,13.0,84,0.00,,,0.00,meteohub,2013-05-19 02:50:00,
2013-05-18 22:55:00,58.1,52.9,30.35,SSE,161,6.0,13.0,83,0.00,,,0.00,meteohub,2013-05-19 02:55:00,
2013-05-18 23:00:00,58.3,52.9,30.35,SSE,150,5.0,13.0,82,0.00,,,0.00,meteohub,2013-05-19 03:00:00,
2013-05-18 23:05:00,58.3,52.2,30.35,SE,146,9.0,13.0,80,0.00,,,0.00,meteohub,2013-05-19 03:05:00,
2013-05-18 23:10:00,58.5,52.3,30.35,SSE,150,6.0,13.0,80,0.00,,,0.00,meteohub,2013-05-19 03:10:00,
2013-05-18 23:15:00,58.5,52.3,30.35,SE,144,10.0,11.0,80,0.00,,,0.00,meteohub,2013-05-19 03:15:00,
2013-05-18 23:20:00,58.5,52.0,30.35,SSE,153,5.0,11.0,79,0.00,,,0.00,meteohub,2013-05-19 03:20:00,
2013-05-18 23:25:00,58.5,52.0,30.35,SSE,161,5.0,11.0,79,0.00,,,0.00,meteohub,2013-05-19 03:25:00,
2013-05-18 23:30:00,58.5,52.0,30.35,SSE,154,7.0,11.0,79,0.00,,,0.00,meteohub,2013-05-19 03:30:00,
2013-05-18 23:35:00,58.5,51.6,30.35,SSE,167,6.0,11.0,78,0.00,,,0.00,meteohub,2013-05-19 03:35:00,
2013-05-18 23:40:00,58.5,51.6,30.35,SSE,166,7.0,11.0,78,0.00,,,0.00,meteohub,2013-05-19 03:40:00,
2013-05-18 23:45:00,58.5,51.6,30.35,SSE,163,9.0,11.0,78,0.00,,,0.00,meteohub,2013-05-19 03:45:00,
2013-05-18 23:50:00,58.5,51.6,30.35,SSE,165,6.0,10.0,78,0.00,,,0.00,meteohub,2013-05-19 03:50:00,
2013-05-18 23:55:00,58.5,51.6,30.34,SSE,165,7.0,10.0,78,0.00,,,0.00,meteohub,2013-05-19 03:55:00,